Current Conditions
Clear
Conditions



Pressure
1013.22 (mb) - 29.92 (inHG)
Visibility

10.0 (mimiles) - 16.1 (km)
   Temperature
57  °F
14°C
46  °F
Dewpoint
67  %
 Humidity
   Wind Speed
6  mph
5  kts
10  km/h
2.7  m/s
   Wind Direction
 300°
West North
West
   Airport Data
KBHC
Location Baxley Municipal 5 mi (8.05 km)
Metar :KBHC 170655Z AUTO 30005KT 10SM CLR 14/08 A2992 RMK AO2
Thu 17th October 02:55 am
   Raw Metar Info
Raw METAR is the most common format in the world for the transmission of observational weather data. It is highly standardized through the International Civil Aviation Organization (ICAO), which allows it to be understood throughout most of the world.
   API Info
Data Provided by
https://www.checkwx.com/weather/KBHC
   © Info
CSS/SVG/PHP scripts were developed by weather34.com for use in the weather34 template © 2015-2019

Guide Info provided by Metar-Wikipedia